This demonstration page uses our WeatherBlox Daily Observations layout. Learn more.

Left ArrowRight Arrow

39.29038, -76.61219

Hourly Observations for April 20, 2022

Temp ( °F °C ) Dew Point ( °F °C ) Humidity (%) Winds ( mph kmh ) Pressure ( in mb ) Visibility ( mi km ) Precip ( " mm )
12:54 am 00:54 Mostly Clear 42 5.6 30 -1.1 62 62 WSW 8 13 30.23 1024 10 16 0.00 0.00
1:54 am 01:54 Mostly Clear 41 5 30 -1.1 65 65 WSW 8 13 30.24 1024 10 16 0.00 0.00
2:54 am 02:54 Mostly Clear 42 5.6 30 -1.1 62 62 WSW 7 11 30.26 1025 10 16 0.00 0.00
3:54 am 03:54 Mostly Clear 40 4.4 30 -1.1 68 68 WSW 8 13 30.29 1026 10 16 0.00 0.00
4:54 am 04:54 Clear 37 2.8 30 -1.1 76 76 WSW 7 11 30.32 1027 10 16 0.00 0.00
5:54 am 05:54 Clear 37 2.8 29 -1.7 73 73 W 6 9 30.35 1028 10 16 0.00 0.00
6:54 am 06:54 Mostly Sunny 37 2.8 30 -1.1 76 76 W 7 11 30.37 1029 10 16 0.00 0.00
7:54 am 07:54 Mostly Sunny 44 6.7 32 0 63 63 WNW 7 11 30.39 1029 10 16 0.00 0.00
8:54 am 08:54 Mostly Sunny 48 8.9 30 -1.1 50 50 NW 13 20 30.40 1029 10 16 0.00 0.00
9:54 am 09:54 Mostly Sunny 52 11.1 28 -2.2 40 40 NW 12 19 30.40 1029 10 16 0.00 0.00
10:54 am 10:54 Partly Cloudy 53 11.7 27 -2.8 37 37 W 9 15 30.40 1030 10 16 0.00 0.00
11:54 am 11:54 Partly Cloudy 55 12.8 28 -2.2 35 35 VRB 6 9 30.41 1030 10 16 0.00 0.00
12:54 pm 12:54 Partly Cloudy 57 13.9 30 -1.1 36 36 W 10 17 30.40 1030 10 16 0.00 0.00
1:54 pm 13:54 Partly Cloudy 58 14.4 25 -3.9 28 28 WSW 6 9 30.40 1030 10 16 0.00 0.00
2:54 pm 14:54 Mostly Sunny 61 16.1 28 -2.2 29 29 VRB 3 6 30.40 1029 10 16 0.00 0.00
3:54 pm 15:54 Mostly Sunny 61 16.1 28 -2.2 29 29 WSW 8 13 30.39 1029 10 16 0.00 0.00
4:54 pm 16:54 Mostly Sunny 61 16.1 26 -3.3 26 26 Calm 30.39 1029 10 16 0.00 0.00
5:54 pm 17:54 Partly Cloudy 61 16.1 26 -3.3 26 26 VRB 5 7 30.39 1029 10 16 0.00 0.00
6:54 pm 18:54 Partly Cloudy 61 16.1 24 -4.4 24 24 Calm 30.40 1029 10 16 0.00 0.00
7:54 pm 19:54 Partly Cloudy 55 12.8 31 -0.6 40 40 ESE 7 11 30.41 1030 10 16 0.00 0.00
8:11 pm 20:11 Partly Cloudy 54 12.2 31 -0.6 42 42 SE 6 9 30.42 1030 10 16 0.00 0.00
8:54 pm 20:54 Partly Cloudy 53 11.7 31 -0.6 43 43 SE 5 7 30.42 1030 10 16 0.00 0.00
9:54 pm 21:54 Clear 51 10.6 33 0.6 50 50 SSE 5 7 30.44 1031 10 16 0.00 0.00
10:54 pm 22:54 Mostly Clear 50 10 35 1.7 57 57 SSE 6 9 30.44 1031 10 16 0.00 0.00
11:54 pm 23:54 Mostly Clear 49 9.4 35 1.7 59 59 SSE 5 7 30.44 1031 10 16 0.00 0.00

Powered by AerisWeather